Year,Month,Day,Hour,Minute,Value (Times are PST for temperature in C)
2011,03,27,00,00,3.40
2011,03,27,00,01,3.40
2011,03,27,00,02,3.40
2011,03,27,00,03,3.40
2011,03,27,00,04,3.40
2011,03,27,00,05,3.40
2011,03,27,00,06,3.40
2011,03,27,00,07,3.40
2011,03,27,00,08,3.40
2011,03,27,00,09,3.40
2011,03,27,00,10,3.40
2011,03,27,00,11,3.40
2011,03,27,00,12,3.40
2011,03,27,00,13,3.40
2011,03,27,00,14,3.40
2011,03,27,00,15,3.40
2011,03,27,00,16,3.40
2011,03,27,00,17,3.40
2011,03,27,00,18,3.40
2011,03,27,00,19,3.40
2011,03,27,00,20,3.40
2011,03,27,00,21,3.40
2011,03,27,00,22,3.40
2011,03,27,00,23,3.40
2011,03,27,00,24,3.50
2011,03,27,00,25,3.50
2011,03,27,00,26,3.50
2011,03,27,00,27,3.50
2011,03,27,00,28,3.50
2011,03,27,00,29,3.50
2011,03,27,00,30,3.50
2011,03,27,00,31,3.50
2011,03,27,00,32,3.50
2011,03,27,00,33,3.50
2011,03,27,00,34,3.60
2011,03,27,00,35,3.60
2011,03,27,00,36,3.60
2011,03,27,00,37,3.60
2011,03,27,00,38,3.50
2011,03,27,00,39,3.60
2011,03,27,00,40,3.60
2011,03,27,00,41,3.60
2011,03,27,00,42,3.60
2011,03,27,00,43,3.50
2011,03,27,00,44,3.50
2011,03,27,00,45,3.50
2011,03,27,00,46,3.50
2011,03,27,00,47,3.50
2011,03,27,00,48,3.50
2011,03,27,00,49,3.50
2011,03,27,00,50,3.50
2011,03,27,00,51,3.50
2011,03,27,00,52,3.50
2011,03,27,00,53,3.60
2011,03,27,00,54,3.60
2011,03,27,00,55,3.60
2011,03,27,00,56,3.60
2011,03,27,00,57,3.60
2011,03,27,00,58,3.60
2011,03,27,00,59,3.60
2011,03,27,01,00,3.60
2011,03,27,01,01,3.60
2011,03,27,01,02,3.60
2011,03,27,01,03,3.60
2011,03,27,01,04,3.60
2011,03,27,01,05,3.60
2011,03,27,01,06,3.60
2011,03,27,01,07,3.70
2011,03,27,01,08,3.70
2011,03,27,01,09,3.70
2011,03,27,01,10,3.70
2011,03,27,01,11,3.70
2011,03,27,01,12,3.70
2011,03,27,01,13,3.70
2011,03,27,01,14,3.70
2011,03,27,01,15,3.70
2011,03,27,01,16,3.70
2011,03,27,01,17,3.70
2011,03,27,01,18,3.70
2011,03,27,01,19,3.70
2011,03,27,01,20,3.70
2011,03,27,01,21,3.70
2011,03,27,01,22,3.70
2011,03,27,01,23,3.70
2011,03,27,01,24,3.70
2011,03,27,01,25,3.70
2011,03,27,01,26,3.70
2011,03,27,01,27,3.70
2011,03,27,01,28,3.70
2011,03,27,01,29,3.70
2011,03,27,01,30,3.70
2011,03,27,01,31,3.70
2011,03,27,01,32,3.70
2011,03,27,01,33,3.70
2011,03,27,01,34,3.70
2011,03,27,01,35,3.80
2011,03,27,01,36,3.80
2011,03,27,01,37,3.80
2011,03,27,01,38,3.80
2011,03,27,01,39,3.80
2011,03,27,01,40,3.80
2011,03,27,01,41,3.80
2011,03,27,01,42,3.80
2011,03,27,01,43,3.80
2011,03,27,01,44,3.80
2011,03,27,01,45,3.80
2011,03,27,01,46,3.80
2011,03,27,01,47,3.80
2011,03,27,01,48,3.80
2011,03,27,01,49,3.80
2011,03,27,01,50,3.80
2011,03,27,01,51,3.80
2011,03,27,01,52,3.80
2011,03,27,01,53,3.80
2011,03,27,01,54,3.80
2011,03,27,01,55,3.80
2011,03,27,01,56,3.80
2011,03,27,01,57,3.80
2011,03,27,01,58,3.80
2011,03,27,01,59,3.80
2011,03,27,02,00,3.80
2011,03,27,02,01,3.80
2011,03,27,02,02,3.80
2011,03,27,02,03,3.80
2011,03,27,02,04,3.80
2011,03,27,02,05,3.80
2011,03,27,02,06,3.90
2011,03,27,02,07,3.90
2011,03,27,02,08,3.90
2011,03,27,02,09,3.90
2011,03,27,02,10,3.90
2011,03,27,02,11,3.90
2011,03,27,02,12,3.90
2011,03,27,02,13,3.90
2011,03,27,02,14,3.90
2011,03,27,02,15,3.90
2011,03,27,02,16,3.90
2011,03,27,02,17,3.90
2011,03,27,02,18,3.90
2011,03,27,02,19,3.90
2011,03,27,02,20,3.90
2011,03,27,02,21,3.90
2011,03,27,02,22,4.00
2011,03,27,02,23,4.00
2011,03,27,02,24,4.00
2011,03,27,02,25,4.00
2011,03,27,02,26,4.00
2011,03,27,02,27,4.00
2011,03,27,02,28,4.00
2011,03,27,02,29,4.00
2011,03,27,02,30,4.00
2011,03,27,02,31,4.00
2011,03,27,02,32,4.00
2011,03,27,02,33,4.00
2011,03,27,02,34,4.00
2011,03,27,02,35,4.00
2011,03,27,02,36,4.00
2011,03,27,02,37,4.00
2011,03,27,02,38,4.00
2011,03,27,02,39,4.00
2011,03,27,02,40,4.00
2011,03,27,02,41,4.00
2011,03,27,02,42,4.00
2011,03,27,02,43,4.00
2011,03,27,02,44,4.00
2011,03,27,02,45,4.00
2011,03,27,02,46,3.90
2011,03,27,02,47,3.90
2011,03,27,02,48,3.90
2011,03,27,02,49,3.90
2011,03,27,02,50,3.90
2011,03,27,02,51,3.80
2011,03,27,02,52,3.80
2011,03,27,02,53,3.80
2011,03,27,02,54,3.80
2011,03,27,02,55,3.80
2011,03,27,02,56,3.80
2011,03,27,02,57,3.70
2011,03,27,02,58,3.70
2011,03,27,02,59,3.70
2011,03,27,03,00,3.70
2011,03,27,03,01,3.60
2011,03,27,03,02,3.60
2011,03,27,03,03,3.60
2011,03,27,03,04,3.60
2011,03,27,03,05,3.60
2011,03,27,03,06,3.50
2011,03,27,03,07,3.50
2011,03,27,03,08,3.50
2011,03,27,03,09,3.50
2011,03,27,03,10,3.50
2011,03,27,03,11,3.50
2011,03,27,03,12,3.40
2011,03,27,03,13,3.40
2011,03,27,03,14,3.40
2011,03,27,03,15,3.40
2011,03,27,03,16,3.40
2011,03,27,03,17,3.40
2011,03,27,03,18,3.40
2011,03,27,03,19,3.40
2011,03,27,03,20,3.40
2011,03,27,03,21,3.30
2011,03,27,03,22,3.30
2011,03,27,03,23,3.30
2011,03,27,03,24,3.30
2011,03,27,03,25,3.30
2011,03,27,03,26,3.30
2011,03,27,03,27,3.20
2011,03,27,03,28,3.20
2011,03,27,03,29,3.20
2011,03,27,03,30,3.20
2011,03,27,03,31,3.10
2011,03,27,03,32,3.10
2011,03,27,03,33,3.10
2011,03,27,03,34,3.10
2011,03,27,03,35,3.00
2011,03,27,03,36,3.00
2011,03,27,03,37,3.00
2011,03,27,03,38,2.90
2011,03,27,03,39,2.90
2011,03,27,03,40,2.90
2011,03,27,03,41,2.90
2011,03,27,03,42,2.90
2011,03,27,03,43,2.90
2011,03,27,03,44,2.80
2011,03,27,03,45,2.80
2011,03,27,03,46,2.80
2011,03,27,03,47,2.80
2011,03,27,03,48,2.70
2011,03,27,03,49,2.70
2011,03,27,03,50,2.70
2011,03,27,03,51,2.70
2011,03,27,03,52,2.60
2011,03,27,03,53,2.60
2011,03,27,03,54,2.60
2011,03,27,03,55,2.50
2011,03,27,03,56,2.50
2011,03,27,03,57,2.50
2011,03,27,03,58,2.40
2011,03,27,03,59,2.40
2011,03,27,04,00,2.40
2011,03,27,04,01,2.40
2011,03,27,04,02,2.40
2011,03,27,04,03,2.30
2011,03,27,04,04,2.30
2011,03,27,04,05,2.30
2011,03,27,04,06,2.30
2011,03,27,04,07,2.20
2011,03,27,04,08,2.20
2011,03,27,04,09,2.20
2011,03,27,04,10,2.20
2011,03,27,04,11,2.20
2011,03,27,04,12,2.20
2011,03,27,04,13,2.20
2011,03,27,04,14,2.20
2011,03,27,04,15,2.20
2011,03,27,04,16,2.20
2011,03,27,04,17,2.10
2011,03,27,04,18,2.10
2011,03,27,04,19,2.10
2011,03,27,04,20,2.10
2011,03,27,04,21,2.10
2011,03,27,04,22,2.10
2011,03,27,04,23,2.10
2011,03,27,04,24,2.10
2011,03,27,04,25,2.00
2011,03,27,04,26,2.00
2011,03,27,04,27,2.00
2011,03,27,04,28,2.00
2011,03,27,04,29,1.90
2011,03,27,04,30,1.90
2011,03,27,04,31,1.90
2011,03,27,04,32,1.90
2011,03,27,04,33,1.90
2011,03,27,04,34,1.90
2011,03,27,04,35,1.90
2011,03,27,04,36,1.90
2011,03,27,04,37,1.90
2011,03,27,04,38,1.90
2011,03,27,04,39,1.90
2011,03,27,04,40,1.90
2011,03,27,04,41,1.90
2011,03,27,04,42,1.80
2011,03,27,04,43,1.80
2011,03,27,04,44,1.80
2011,03,27,04,45,1.80
2011,03,27,04,46,1.80
2011,03,27,04,47,1.70
2011,03,27,04,48,1.70
2011,03,27,04,49,1.70
2011,03,27,04,50,1.70
2011,03,27,04,51,1.70
2011,03,27,04,52,1.70
2011,03,27,04,53,1.70
2011,03,27,04,54,1.60
2011,03,27,04,55,1.60
2011,03,27,04,56,1.60
2011,03,27,04,57,1.50
2011,03,27,04,58,1.50
2011,03,27,04,59,1.50
2011,03,27,05,00,1.40
2011,03,27,05,01,1.40
2011,03,27,05,02,1.40
2011,03,27,05,03,1.40
2011,03,27,05,04,1.40
2011,03,27,05,05,1.40
2011,03,27,05,06,1.40
2011,03,27,05,07,1.40
2011,03,27,05,08,1.40
2011,03,27,05,09,1.40
2011,03,27,05,10,1.40
2011,03,27,05,11,1.40
2011,03,27,05,12,1.40
2011,03,27,05,13,1.40
2011,03,27,05,14,1.40
2011,03,27,05,15,1.40
2011,03,27,05,16,1.40
2011,03,27,05,17,1.50
2011,03,27,05,18,1.50
2011,03,27,05,19,1.50
2011,03,27,05,20,1.50
2011,03,27,05,21,1.50
2011,03,27,05,22,1.60
2011,03,27,05,23,1.60
2011,03,27,05,24,1.60
2011,03,27,05,25,1.60
2011,03,27,05,26,1.60
2011,03,27,05,27,1.60
2011,03,27,05,28,1.60
2011,03,27,05,29,1.60
2011,03,27,05,30,1.60
2011,03,27,05,31,1.60
2011,03,27,05,32,1.60
2011,03,27,05,33,1.60
2011,03,27,05,34,1.60
2011,03,27,05,35,1.60
2011,03,27,05,36,1.70
2011,03,27,05,37,1.70
2011,03,27,05,38,1.70
2011,03,27,05,39,1.70
2011,03,27,05,40,1.70
2011,03,27,05,41,1.70
2011,03,27,05,42,1.70
2011,03,27,05,43,1.80
2011,03,27,05,44,1.90
2011,03,27,05,45,2.00
2011,03,27,05,46,2.10
2011,03,27,05,47,2.30
2011,03,27,05,48,2.40
2011,03,27,05,49,2.50
2011,03,27,05,50,2.60
2011,03,27,05,51,2.80
2011,03,27,05,52,2.90
2011,03,27,05,53,3.10
2011,03,27,05,54,3.30
2011,03,27,05,55,3.50
2011,03,27,05,56,3.70
2011,03,27,05,57,3.80
2011,03,27,05,58,4.00
2011,03,27,05,59,4.10
2011,03,27,06,00,4.20
2011,03,27,06,01,4.30
2011,03,27,06,02,4.40
2011,03,27,06,03,4.50
2011,03,27,06,04,4.60
2011,03,27,06,05,4.70
2011,03,27,06,06,4.70
2011,03,27,06,07,4.80
2011,03,27,06,08,4.80
2011,03,27,06,09,4.80
2011,03,27,06,10,4.80
2011,03,27,06,11,4.90
2011,03,27,06,12,4.90
2011,03,27,06,13,4.90
2011,03,27,06,14,5.00
2011,03,27,06,15,5.00
2011,03,27,06,16,5.10
2011,03,27,06,17,5.10
2011,03,27,06,18,5.20
2011,03,27,06,19,5.20
2011,03,27,06,20,5.20
2011,03,27,06,21,5.30
2011,03,27,06,22,5.30
2011,03,27,06,23,5.30
2011,03,27,06,24,5.30
2011,03,27,06,25,5.30
2011,03,27,06,26,5.30
2011,03,27,06,27,5.40
2011,03,27,06,28,5.40
2011,03,27,06,29,5.40
2011,03,27,06,30,5.40
2011,03,27,06,31,5.40
2011,03,27,06,32,5.40
2011,03,27,06,33,5.40
2011,03,27,06,34,5.40
2011,03,27,06,35,5.40
2011,03,27,06,36,5.40
2011,03,27,06,37,5.40
2011,03,27,06,38,5.40
2011,03,27,06,39,5.40
2011,03,27,06,40,5.40
2011,03,27,06,41,5.40
2011,03,27,06,42,5.40
2011,03,27,06,43,5.40
2011,03,27,06,44,5.40
2011,03,27,06,45,5.40
2011,03,27,06,46,5.40
2011,03,27,06,47,5.40
2011,03,27,06,48,5.40
2011,03,27,06,49,5.40
2011,03,27,06,50,5.50
2011,03,27,06,51,5.50
2011,03,27,06,52,5.50
2011,03,27,06,53,5.50
2011,03,27,06,54,5.50
2011,03,27,06,55,5.50
2011,03,27,06,56,5.50
2011,03,27,06,57,5.50
2011,03,27,06,58,5.50
2011,03,27,06,59,5.50
2011,03,27,07,00,5.50
2011,03,27,07,01,5.50
2011,03,27,07,02,5.50
2011,03,27,07,03,5.50
2011,03,27,07,04,5.50
2011,03,27,07,05,5.60
2011,03,27,07,06,5.50
2011,03,27,07,07,5.60
2011,03,27,07,08,5.60
2011,03,27,07,09,5.60
2011,03,27,07,10,5.60
2011,03,27,07,11,5.60
2011,03,27,07,12,5.60
2011,03,27,07,13,5.60
2011,03,27,07,14,5.60
2011,03,27,07,15,5.60
2011,03,27,07,16,5.60
2011,03,27,07,17,5.60
2011,03,27,07,18,5.60
2011,03,27,07,19,5.60
2011,03,27,07,20,5.60
2011,03,27,07,21,5.60
2011,03,27,07,22,5.60
2011,03,27,07,23,5.60
2011,03,27,07,24,5.60
2011,03,27,07,25,5.70
2011,03,27,07,26,5.70
2011,03,27,07,27,5.70
2011,03,27,07,28,5.70
2011,03,27,07,29,5.70
2011,03,27,07,30,5.70
2011,03,27,07,31,5.70
2011,03,27,07,32,5.70
2011,03,27,07,33,5.70
2011,03,27,07,34,5.70
2011,03,27,07,35,5.70
2011,03,27,07,36,5.70
2011,03,27,07,37,5.70
2011,03,27,07,38,5.70
2011,03,27,07,39,5.70
2011,03,27,07,40,5.70
2011,03,27,07,41,5.70
2011,03,27,07,42,5.70
2011,03,27,07,43,5.70
2011,03,27,07,44,5.70
2011,03,27,07,45,5.70
2011,03,27,07,46,5.70
2011,03,27,07,47,5.70
2011,03,27,07,48,5.70
2011,03,27,07,49,5.70
2011,03,27,07,50,5.70
2011,03,27,07,51,5.70
2011,03,27,07,52,5.70
2011,03,27,07,53,5.70
2011,03,27,07,54,5.70
2011,03,27,07,55,5.70
2011,03,27,07,56,5.70
2011,03,27,07,57,5.70
2011,03,27,07,58,5.70
2011,03,27,07,59,5.70
2011,03,27,08,00,5.70
2011,03,27,08,01,5.70
2011,03,27,08,02,5.70
2011,03,27,08,03,5.70
2011,03,27,08,04,5.70
2011,03,27,08,05,5.70
2011,03,27,08,06,5.70
2011,03,27,08,07,5.70
2011,03,27,08,08,5.70
2011,03,27,08,09,5.70
2011,03,27,08,10,5.70
2011,03,27,08,11,5.70
2011,03,27,08,12,5.70
2011,03,27,08,13,5.70
2011,03,27,08,14,5.70
2011,03,27,08,15,5.70
2011,03,27,08,16,5.70
2011,03,27,08,17,5.70
2011,03,27,08,18,5.70
2011,03,27,08,19,5.70
2011,03,27,08,20,5.70
2011,03,27,08,21,5.70
2011,03,27,08,22,5.70
2011,03,27,08,23,5.70
2011,03,27,08,24,5.70
2011,03,27,08,25,5.70
2011,03,27,08,26,5.70
2011,03,27,08,27,5.70
2011,03,27,08,28,5.70
2011,03,27,08,29,5.70
2011,03,27,08,30,5.70
2011,03,27,08,31,5.70
2011,03,27,08,32,5.70
2011,03,27,08,33,5.70
2011,03,27,08,34,5.70
2011,03,27,08,35,5.70
2011,03,27,08,36,5.70
2011,03,27,08,37,5.70
2011,03,27,08,38,5.70
2011,03,27,08,39,5.70
2011,03,27,08,40,5.70
2011,03,27,08,41,5.70
2011,03,27,08,42,5.70
2011,03,27,08,43,5.80
2011,03,27,08,44,5.80
2011,03,27,08,45,5.80
2011,03,27,08,46,5.80
2011,03,27,08,47,5.80
2011,03,27,08,48,5.80
2011,03,27,08,49,5.80
2011,03,27,08,50,5.80
2011,03,27,08,51,5.80
2011,03,27,08,52,5.80
2011,03,27,08,53,5.80
2011,03,27,08,54,5.80
2011,03,27,08,55,5.80
2011,03,27,08,56,5.80
2011,03,27,08,57,5.80
2011,03,27,08,58,5.80
2011,03,27,08,59,5.80
2011,03,27,09,00,5.80
2011,03,27,09,01,5.80
2011,03,27,09,02,5.80
2011,03,27,09,03,5.80
2011,03,27,09,04,5.80
2011,03,27,09,05,5.80
2011,03,27,09,06,5.80
2011,03,27,09,07,5.80
2011,03,27,09,08,5.80
2011,03,27,09,09,5.80
2011,03,27,09,10,5.80
2011,03,27,09,11,5.80
2011,03,27,09,12,5.80
2011,03,27,09,13,5.80
2011,03,27,09,14,5.80
2011,03,27,09,15,5.80
2011,03,27,09,16,5.80
2011,03,27,09,17,5.80
2011,03,27,09,18,5.80
2011,03,27,09,19,5.80
2011,03,27,09,20,5.80
2011,03,27,09,21,5.80
2011,03,27,09,22,5.90
2011,03,27,09,23,5.90
2011,03,27,09,24,5.90
2011,03,27,09,25,5.90
2011,03,27,09,26,5.90
2011,03,27,09,27,5.90
2011,03,27,09,28,5.90
2011,03,27,09,29,5.90
2011,03,27,09,30,5.90
2011,03,27,09,31,5.90
2011,03,27,09,32,5.90
2011,03,27,09,33,5.90
2011,03,27,09,34,5.90
2011,03,27,09,35,5.90
2011,03,27,09,36,5.90
2011,03,27,09,37,5.90
2011,03,27,09,38,5.90
2011,03,27,09,39,5.90
2011,03,27,09,40,5.90
2011,03,27,09,41,5.90
2011,03,27,09,42,5.90
2011,03,27,09,43,5.90
2011,03,27,09,44,5.90
2011,03,27,09,45,5.90
2011,03,27,09,46,5.90
2011,03,27,09,47,5.90
2011,03,27,09,48,5.90
2011,03,27,09,49,5.90
2011,03,27,09,50,5.90
2011,03,27,09,51,5.90
2011,03,27,09,52,5.90
2011,03,27,09,53,5.90
2011,03,27,09,54,5.90
2011,03,27,09,55,5.90
2011,03,27,09,56,5.90
2011,03,27,09,57,5.90
2011,03,27,09,58,5.90
2011,03,27,09,59,5.90
2011,03,27,10,00,5.90
2011,03,27,10,01,5.90
2011,03,27,10,02,5.90
2011,03,27,10,03,6.00
2011,03,27,10,04,6.00
2011,03,27,10,05,6.00
2011,03,27,10,06,6.00
2011,03,27,10,07,6.00
2011,03,27,10,08,6.00
2011,03,27,10,09,6.00
2011,03,27,10,10,6.00
2011,03,27,10,11,6.10
2011,03,27,10,12,6.10
2011,03,27,10,13,6.10
2011,03,27,10,14,6.10
2011,03,27,10,15,6.10
2011,03,27,10,16,6.10
2011,03,27,10,17,6.10
2011,03,27,10,18,6.10
2011,03,27,10,19,6.10
2011,03,27,10,20,6.10
2011,03,27,10,21,6.10
2011,03,27,10,22,6.10
2011,03,27,10,23,6.10
2011,03,27,10,24,6.10
2011,03,27,10,25,6.10
2011,03,27,10,26,6.10
2011,03,27,10,27,6.10
2011,03,27,10,28,6.20
2011,03,27,10,29,6.20
2011,03,27,10,30,6.20
2011,03,27,10,31,6.20
2011,03,27,10,32,6.20
2011,03,27,10,33,6.20
2011,03,27,10,34,6.20
2011,03,27,10,35,6.20
2011,03,27,10,36,6.20
2011,03,27,10,37,6.20
2011,03,27,10,38,6.20
2011,03,27,10,39,6.20
2011,03,27,10,40,6.20
2011,03,27,10,41,6.20
2011,03,27,10,42,6.30
2011,03,27,10,43,6.30
2011,03,27,10,44,6.30
2011,03,27,10,45,6.30
2011,03,27,10,46,6.30
2011,03,27,10,47,6.30
2011,03,27,10,48,6.30
2011,03,27,10,49,6.30
2011,03,27,10,50,6.30
2011,03,27,10,51,6.30
2011,03,27,10,52,6.30
2011,03,27,10,53,6.40
2011,03,27,10,54,6.40
2011,03,27,10,55,6.40
2011,03,27,10,56,6.40
2011,03,27,10,57,6.40
2011,03,27,10,58,6.50
2011,03,27,10,59,6.50
2011,03,27,11,00,6.50
2011,03,27,11,01,6.50
2011,03,27,11,02,6.60
2011,03,27,11,03,6.60
2011,03,27,11,04,6.60
2011,03,27,11,05,6.50
2011,03,27,11,06,6.50
2011,03,27,11,07,6.50
2011,03,27,11,08,6.50
2011,03,27,11,09,6.40
2011,03,27,11,10,6.40
2011,03,27,11,11,6.40
2011,03,27,11,12,6.40
2011,03,27,11,13,6.40
2011,03,27,11,14,6.40
2011,03,27,11,15,6.40
2011,03,27,11,16,6.40
2011,03,27,11,17,6.50
2011,03,27,11,18,6.50
2011,03,27,11,19,6.50
2011,03,27,11,20,6.40
2011,03,27,11,21,6.40
2011,03,27,11,22,6.40
2011,03,27,11,23,6.40
2011,03,27,11,24,6.40
2011,03,27,11,25,6.30
2011,03,27,11,26,6.30
2011,03,27,11,27,6.30
2011,03,27,11,28,6.20
2011,03,27,11,29,6.20
2011,03,27,11,30,6.20
2011,03,27,11,31,6.20
2011,03,27,11,32,6.10
2011,03,27,11,33,6.10
2011,03,27,11,34,6.10
2011,03,27,11,35,6.10
2011,03,27,11,36,6.10
2011,03,27,11,37,6.10
2011,03,27,11,38,6.10
2011,03,27,11,39,6.10
2011,03,27,11,40,6.00
2011,03,27,11,41,6.00
2011,03,27,11,42,6.00
2011,03,27,11,43,6.00
2011,03,27,11,44,6.00
2011,03,27,11,45,6.00
2011,03,27,11,46,5.90
2011,03,27,11,47,5.90
2011,03,27,11,48,5.90
2011,03,27,11,49,5.90
2011,03,27,11,50,5.90
2011,03,27,11,51,5.90
2011,03,27,11,52,5.90
2011,03,27,11,53,5.90
2011,03,27,11,54,5.90
2011,03,27,11,55,5.90
2011,03,27,11,56,5.90
2011,03,27,11,57,5.90
2011,03,27,11,58,5.90
2011,03,27,11,59,5.90
2011,03,27,12,00,5.90
2011,03,27,12,01,5.90
2011,03,27,12,02,5.90
2011,03,27,12,03,5.90
2011,03,27,12,04,5.90
2011,03,27,12,05,5.90
2011,03,27,12,06,5.90
2011,03,27,12,07,5.90
2011,03,27,12,08,5.90
2011,03,27,12,09,5.90
2011,03,27,12,10,6.00
2011,03,27,12,11,5.90
2011,03,27,12,12,6.00
2011,03,27,12,13,5.90
2011,03,27,12,14,6.00
2011,03,27,12,15,6.00
2011,03,27,12,16,6.00
2011,03,27,12,17,6.00
2011,03,27,12,18,6.00
2011,03,27,12,19,6.00
2011,03,27,12,20,6.00
2011,03,27,12,21,6.00
2011,03,27,12,22,6.10
2011,03,27,12,23,6.10
2011,03,27,12,24,6.10
2011,03,27,12,25,6.10
2011,03,27,12,26,6.10
2011,03,27,12,27,6.10
2011,03,27,12,28,6.10
2011,03,27,12,29,6.10
2011,03,27,12,30,6.10
2011,03,27,12,31,6.10
2011,03,27,12,32,6.10
2011,03,27,12,33,6.10
2011,03,27,12,34,6.10
2011,03,27,12,35,6.10
2011,03,27,12,36,6.10
2011,03,27,12,37,6.10
2011,03,27,12,38,6.10
2011,03,27,12,39,6.10
2011,03,27,12,40,6.10
2011,03,27,12,41,6.10
2011,03,27,12,42,6.10
2011,03,27,12,43,6.10
2011,03,27,12,44,6.10
2011,03,27,12,45,6.10
2011,03,27,12,46,6.00
2011,03,27,12,47,6.00
2011,03,27,12,48,6.00
2011,03,27,12,49,6.00
2011,03,27,12,50,6.00
2011,03,27,12,51,6.10
2011,03,27,12,52,6.10
2011,03,27,12,53,6.10
2011,03,27,12,54,6.10
2011,03,27,12,55,6.10
2011,03,27,12,56,6.10
2011,03,27,12,57,6.10
2011,03,27,12,58,6.10
2011,03,27,12,59,6.10
2011,03,27,13,00,6.10
2011,03,27,13,01,6.10
2011,03,27,13,02,6.10
2011,03,27,13,03,6.10
2011,03,27,13,04,6.10
2011,03,27,13,05,6.10
2011,03,27,13,06,6.10
2011,03,27,13,07,6.10
2011,03,27,13,08,6.10
2011,03,27,13,09,6.10
2011,03,27,13,10,6.10
2011,03,27,13,11,6.20
2011,03,27,13,12,6.20
2011,03,27,13,13,6.20
2011,03,27,13,14,6.20
2011,03,27,13,15,6.20
2011,03,27,13,16,6.20
2011,03,27,13,17,6.20
2011,03,27,13,18,6.20
2011,03,27,13,19,6.30
2011,03,27,13,20,6.30
2011,03,27,13,21,6.30
2011,03,27,13,22,6.30
2011,03,27,13,23,6.30
2011,03,27,13,24,6.30
2011,03,27,13,25,6.30
2011,03,27,13,26,6.30
2011,03,27,13,27,6.30
2011,03,27,13,28,6.30
2011,03,27,13,29,6.30
2011,03,27,13,30,6.40
2011,03,27,13,31,6.40
2011,03,27,13,32,6.40
2011,03,27,13,33,6.40
2011,03,27,13,34,6.40
2011,03,27,13,35,6.50
2011,03,27,13,36,6.50
2011,03,27,13,37,6.60
2011,03,27,13,38,6.60
2011,03,27,13,39,6.60
2011,03,27,13,40,6.60
2011,03,27,13,41,6.70
2011,03,27,13,42,6.70
2011,03,27,13,43,6.70
2011,03,27,13,44,6.70
2011,03,27,13,45,6.70
2011,03,27,13,46,6.80
2011,03,27,13,47,6.80
2011,03,27,13,48,6.80
2011,03,27,13,49,6.80
2011,03,27,13,50,6.80
2011,03,27,13,51,6.90
2011,03,27,13,52,6.90
2011,03,27,13,53,6.90
2011,03,27,13,54,6.90
2011,03,27,13,55,6.90
2011,03,27,13,56,7.00
2011,03,27,13,57,7.00
2011,03,27,13,58,7.10
2011,03,27,13,59,7.10
2011,03,27,14,00,7.20
2011,03,27,14,01,7.20
2011,03,27,14,02,7.20
2011,03,27,14,03,7.20
2011,03,27,14,04,7.20
2011,03,27,14,05,7.20
2011,03,27,14,06,7.30
2011,03,27,14,07,7.30
2011,03,27,14,08,7.30
2011,03,27,14,09,7.30
2011,03,27,14,10,7.40
2011,03,27,14,11,7.40
2011,03,27,14,12,7.40
2011,03,27,14,13,7.40
2011,03,27,14,14,7.40
2011,03,27,14,15,7.40
2011,03,27,14,16,7.40
2011,03,27,14,17,7.50
2011,03,27,14,18,7.50
2011,03,27,14,19,7.60
2011,03,27,14,20,7.60
2011,03,27,14,21,7.60
2011,03,27,14,22,7.70
2011,03,27,14,23,7.70
2011,03,27,14,24,7.70
2011,03,27,14,25,7.70
2011,03,27,14,26,7.70
2011,03,27,14,27,7.80
2011,03,27,14,28,7.70
2011,03,27,14,29,7.80
2011,03,27,14,30,7.80
2011,03,27,14,31,7.80
2011,03,27,14,32,7.80
2011,03,27,14,33,7.80
2011,03,27,14,34,7.80
2011,03,27,14,35,7.80
2011,03,27,14,36,7.80
2011,03,27,14,37,7.80
2011,03,27,14,38,7.90
2011,03,27,14,39,7.90
2011,03,27,14,40,7.90
2011,03,27,14,41,7.90
2011,03,27,14,42,7.90
2011,03,27,14,43,7.90
2011,03,27,14,44,7.90
2011,03,27,14,45,7.90
2011,03,27,14,46,7.90
2011,03,27,14,47,7.90
2011,03,27,14,48,7.90
2011,03,27,14,49,7.90
2011,03,27,14,50,7.90
2011,03,27,14,51,8.00
2011,03,27,14,52,8.00
2011,03,27,14,53,8.00
2011,03,27,14,54,8.10
2011,03,27,14,55,8.20
2011,03,27,14,56,8.20
2011,03,27,14,57,8.30
2011,03,27,14,58,8.40
2011,03,27,14,59,8.40
2011,03,27,15,00,8.50
2011,03,27,15,01,8.50
2011,03,27,15,02,8.50
2011,03,27,15,03,8.50
2011,03,27,15,04,8.40
2011,03,27,15,05,8.40
2011,03,27,15,06,8.40
2011,03,27,15,07,8.30
2011,03,27,15,08,8.30
2011,03,27,15,09,8.30
2011,03,27,15,10,8.30
2011,03,27,15,11,8.30
2011,03,27,15,12,8.30
2011,03,27,15,13,8.30
2011,03,27,15,14,8.30
2011,03,27,15,15,8.30
2011,03,27,15,16,8.30
2011,03,27,15,17,8.30
2011,03,27,15,18,8.30
2011,03,27,15,19,8.30
2011,03,27,15,20,8.40
2011,03,27,15,21,8.50
2011,03,27,15,22,8.50
2011,03,27,15,23,8.60
2011,03,27,15,24,8.60
2011,03,27,15,25,8.60
2011,03,27,15,26,8.60
2011,03,27,15,27,8.70
2011,03,27,15,28,8.70
2011,03,27,15,29,8.80
2011,03,27,15,30,8.90
2011,03,27,15,31,8.90
2011,03,27,15,32,9.00
2011,03,27,15,33,9.00
2011,03,27,15,34,9.10
2011,03,27,15,35,9.10
2011,03,27,15,36,9.10
2011,03,27,15,37,9.10
2011,03,27,15,38,9.10
2011,03,27,15,39,9.10
2011,03,27,15,40,9.10
2011,03,27,15,41,9.10
2011,03,27,15,42,9.00
2011,03,27,15,43,9.00
2011,03,27,15,44,8.90
2011,03,27,15,45,8.80
2011,03,27,15,46,8.80
2011,03,27,15,47,8.70
2011,03,27,15,48,8.70
2011,03,27,15,49,8.70
2011,03,27,15,50,8.60
2011,03,27,15,51,8.60
2011,03,27,15,52,8.50
2011,03,27,15,53,8.50
2011,03,27,15,54,8.50
2011,03,27,15,55,8.40
2011,03,27,15,56,8.40
2011,03,27,15,57,8.50
2011,03,27,15,58,8.50
2011,03,27,15,59,8.60
2011,03,27,16,00,8.70
2011,03,27,16,01,8.70
2011,03,27,16,02,8.70
2011,03,27,16,03,8.80
2011,03,27,16,04,8.80
2011,03,27,16,05,8.80
2011,03,27,16,06,8.80
2011,03,27,16,07,8.80
2011,03,27,16,08,8.80
2011,03,27,16,09,8.80
2011,03,27,16,10,8.80
2011,03,27,16,11,8.90
2011,03,27,16,12,8.90
2011,03,27,16,13,9.00
2011,03,27,16,14,9.00
2011,03,27,16,15,9.00
2011,03,27,16,16,9.00
2011,03,27,16,17,9.10
2011,03,27,16,18,9.10
2011,03,27,16,19,9.10
2011,03,27,16,20,9.10
2011,03,27,16,21,9.10
2011,03,27,16,22,9.10
2011,03,27,16,23,9.10
2011,03,27,16,24,9.10
2011,03,27,16,25,9.10
2011,03,27,16,26,9.10
2011,03,27,16,27,9.10
2011,03,27,16,28,9.10
2011,03,27,16,29,9.10
2011,03,27,16,30,9.10
2011,03,27,16,31,9.10
2011,03,27,16,32,9.10
2011,03,27,16,33,9.10
2011,03,27,16,34,9.10
2011,03,27,16,35,9.10
2011,03,27,16,36,9.10
2011,03,27,16,37,9.00
2011,03,27,16,38,9.00
2011,03,27,16,39,9.00
2011,03,27,16,40,8.90
2011,03,27,16,41,8.90
2011,03,27,16,42,8.90
2011,03,27,16,43,9.00
2011,03,27,16,44,9.00
2011,03,27,16,45,9.00
2011,03,27,16,46,9.00
2011,03,27,16,47,9.00
2011,03,27,16,48,8.90
2011,03,27,16,49,8.90
2011,03,27,16,50,8.90
2011,03,27,16,51,8.90
2011,03,27,16,52,8.80
2011,03,27,16,53,8.80
2011,03,27,16,54,8.80
2011,03,27,16,55,8.80
2011,03,27,16,56,8.80
2011,03,27,16,57,8.80
2011,03,27,16,58,8.80
2011,03,27,16,59,8.80
2011,03,27,17,00,8.80
2011,03,27,17,01,8.80
2011,03,27,17,02,8.80
2011,03,27,17,03,8.70
2011,03,27,17,04,8.70
2011,03,27,17,05,8.70
2011,03,27,17,06,8.70
2011,03,27,17,07,8.70
2011,03,27,17,08,8.70
2011,03,27,17,09,8.70
2011,03,27,17,10,8.70
2011,03,27,17,11,8.70
2011,03,27,17,12,8.70
2011,03,27,17,13,8.70
2011,03,27,17,14,8.70
2011,03,27,17,15,8.70
2011,03,27,17,16,8.70
2011,03,27,17,17,8.70
2011,03,27,17,18,8.80
2011,03,27,17,19,8.80
2011,03,27,17,20,8.80
2011,03,27,17,21,8.80
2011,03,27,17,22,8.80
2011,03,27,17,23,8.90
2011,03,27,17,24,8.90
2011,03,27,17,25,8.90
2011,03,27,17,26,8.90
2011,03,27,17,27,8.90
2011,03,27,17,28,8.90
2011,03,27,17,29,8.90
2011,03,27,17,30,8.90
2011,03,27,17,31,9.00
2011,03,27,17,32,9.00
2011,03,27,17,33,9.00
2011,03,27,17,34,9.00
2011,03,27,17,35,9.10
2011,03,27,17,36,9.10
2011,03,27,17,37,9.10
2011,03,27,17,38,9.10
2011,03,27,17,39,9.10
2011,03,27,17,40,9.10
2011,03,27,17,41,9.10
2011,03,27,17,42,9.10
2011,03,27,17,43,9.10
2011,03,27,17,44,9.00
2011,03,27,17,45,9.00
2011,03,27,17,46,9.00
2011,03,27,17,47,9.00
2011,03,27,17,48,9.00
2011,03,27,17,49,9.00
2011,03,27,17,50,8.90
2011,03,27,17,51,8.90
2011,03,27,17,52,8.90
2011,03,27,17,53,8.90
2011,03,27,17,54,8.90
2011,03,27,17,55,8.90
2011,03,27,17,56,8.90
2011,03,27,17,57,8.90
2011,03,27,17,58,8.90
2011,03,27,17,59,8.90
2011,03,27,18,00,8.90
2011,03,27,18,01,8.90
2011,03,27,18,02,8.90
2011,03,27,18,03,8.80
2011,03,27,18,04,8.80
2011,03,27,18,05,8.80
2011,03,27,18,06,8.80